www.pogodaiklimat.ru
ПОГОДА в Шибенике

Архив погоды в Шибенике (Хорватия)

Время
(UTC), дата
00 22.11
03 22.11
04 22.11
05 22.11
06 22.11
07 22.11
08 22.11
09 22.11
10 22.11
11 22.11
12 22.11
13 22.11
14 22.11
15 22.11
16 22.11
17 22.11
18 22.11
19 22.11
20 22.11
21 22.11
00 23.11
03 23.11
04 23.11
05 23.11
06 23.11
07 23.11
08 23.11
09 23.11
10 23.11
11 23.11
12 23.11
13 23.11
14 23.11
15 23.11
16 23.11
17 23.11
18 23.11
19 23.11
20 23.11
21 23.11
00 24.11
03 24.11
04 24.11
05 24.11
06 24.11
07 24.11
08 24.11
09 24.11
10 24.11
11 24.11
12 24.11
13 24.11
14 24.11
15 24.11
16 24.11
17 24.11
18 24.11
19 24.11
20 24.11
21 24.11
00 25.11
03 25.11
04 25.11
05 25.11
06 25.11
07 25.11
08 25.11
09 25.11
10 25.11
11 25.11
12 25.11
13 25.11
14 25.11
15 25.11
16 25.11
17 25.11
18 25.11
19 25.11
20 25.11
21 25.11
00 26.11
03 26.11
04 26.11
05 26.11
06 26.11
07 26.11
08 26.11
09 26.11
10 26.11
11 26.11
12 26.11
13 26.11
14 26.11
15 26.11
16 26.11
17 26.11
18 26.11
19 26.11
20 26.11
21 26.11
00 27.11
03 27.11
04 27.11
05 27.11
06 27.11
07 27.11
08 27.11
09 27.11
10 27.11
11 27.11
12 27.11
13 27.11
14 27.11
15 27.11
16 27.11
17 27.11
18 27.11
19 27.11
20 27.11
21 27.11
00 28.11
03 28.11
04 28.11
05 28.11
06 28.11
07 28.11
08 28.11
09 28.11
10 28.11
11 28.11
12 28.11
13 28.11
14 28.11
15 28.11
16 28.11
17 28.11
18 28.11
19 28.11
20 28.11
21 28.11
Ветер
(напр.,м/с)
Видим. Явления Облачность Т
(С)
Тd
(С)
f
(%)
Тe
(С)
Тes
(С)
Комфортность P
(гПа)
Po
(гПа)
Тmin
(С)
Tmax
(С)
R
(мм)
R24
(мм)
S
(см)
В 3 н/о н/о +13.6 +10.5 82 +12 +12 1011.7 1002.7
СВ 5 20 км {дождь} 8/8 600 м
[Cu Sc]
+14.1 +10.6 79 +12 +12 1009.7 1000.8
В 5 18 км слаб. дождь 10/10 600 м
[Cu Sc]
+14.1 +10.6 79 +12 +12 1009.8 1000.9
В 4 15 км ливневой дождь, в посл. час гроза 10/8 600 м
[Cb cap As op]
+14.4 +10.9 79 +13 +13 1010.4 1001.5
В 4 10 км дождь {гроза, ливн. дождь} 10/6 600 м
[Cu Sc As op]
+13.2 +11.8 91 +11 +11 1010.4 1001.4 +12.1 8 7.9
В 3 25 км слаб. дождь {ливн. дождь, гроза} 10/6 600 м
[Cu Sc As op]
+13.3 +11.4 88 +12 +12 1010.7 1001.7
В 2 25 км в посл. час дождь {ливн. дождь, гроза} 9/9 600 м
[Cu Sc]
+14.4 +12.3 87 +14 +14 1010.8 1001.9
В 2 30 км 8/6 600 м
[Cu Sc Ci sp]
+15.2 +13.2 88 +15 +16 1010.9 1002.0
В 2 30 км 6/3 600 м
[Cu med, cong Ac cuf Ci fib]
+17.0 +12.1 73 +17 +19 1010.8 1001.9
ЮВ 2 30 км 8/5 600 м
[Cu med, cong Ci sp]
+17.5 +12.1 71 +18 +20 1010.5 1001.7
Ю 3 30 км 8/5 600 м
[Cu med, cong Ac cast Ci sp]
+18.2 +12.5 69 +19 +20 1010.3 1001.5 0.5 8.4
Ю 2 30 км 8/8 600 м
[Cu Sc]
+17.3 +11.9 71 +18 +18 1010.3 1001.5
Ю 1 н/о н/о +16.7 +11.7 72 +18 +18 1010.8 1001.9
С 1 н/о н/о +16.0 +12.2 78 +17 +17 1011.1 1002.2
С 5 н/о н/о +14.0 +9.9 76 +12 +12 1011.5 1002.5
С 7 н/о н/о +11.9 +7.5 74 +9 +9 1012.2 1003.1
С 7 25 км 8/6 600 м
[Cu Sc Ci sp]
+11.3 +8.1 81 +8 +8 1012.4 1003.3 +18.5 0.5
С 8 25 км 9/9 600 м
[Cu Sc]
+10.5 +7.0 79 +7 +7 1013.5 1004.4
С 8 15 км дождь 10/6 600 м
[Cu Sc As op]
+9.2 +7.0 86 +5 +5 1014.0 1004.9
С 9 н/о н/о +8.2 +6.2 87 +3 +3 1014.5 1005.3
С 8 н/о н/о +9.6 +3.8 67 +6 +6 1015.3 1006.1
С 8 20 км {дождь} 8/3 1000 м
[Sc Cs]
+10.5 +3.7 63 +7 +7 1014.9 1005.8
С 8 20 км 8/3 1000 м
[Sc Ac und]
+10.7 +3.4 61 +7 +7 1014.9 1005.8
С 7 20 км 9/8 1000 м
[Sc Ci sp]
+10.8 +3.0 59 +8 +8 1015.3 1006.2
С 4 30 км 8/3 1000 м
[Sc As op Ci sp]
+10.5 +2.9 59 +8 +8 1016.0 1006.9 +8.3 3 3.1
С 4 30 км 8/5 1000 м
[Cu Sc Ci sp]
+10.9 +2.9 58 +9 +9 1016.9 1007.8
С 8 35 км 8/4 1000 м
[Cu Sc Ac cast Ci sp]
+12.2 +2.8 53 +9 +9 1017.2 1008.1
С 5 45 км 8/8 1000 м
[Cu Sc]
+13.1 +3.2 51 +11 +12 1017.7 1008.6
С 7 45 км 6/5 1000 м
[Cu Sc Ac cast]
+14.7 +4.1 49 +13 +13 1018.0 1009.0
С 6 45 км 8/6 1000 м
[Sc Ac cast Ci sp]
+14.1 +3.8 50 +12 +13 1017.7 1008.7
С 7 45 км 8/8 1000 м
[Sc Ci sp]
+14.2 +3.5 49 +12 +12 1017.7 1008.7 2.6
С 7 45 км 5/3 1000 м
[Sc Ac cast Ci sp]
+13.6 +3.4 50 +11 +12 1018.0 1009.0
С 6 н/о н/о +13.3 +2.3 47 +11 +11 1018.9 1009.8
С 5 н/о н/о +12.2 +2.1 50 +10 +10 1019.2 1010.1
С 7 н/о н/о +11.2 +1.8 52 +8 +8 1019.5 1010.4
н/о н/о +10.7 +1.6 53 1020.0 1010.8
С 8 20 км 1/1 1000 м
[Sc diur, vesp]
+10.6 +2.8 58 +7 +7 1019.7 1010.5 +14.8
С 6 20 км ясно +10.2 +2.8 60 +7 +7 1020.0 1010.8
С 5 20 км ясно +10.2 +2.3 58 +7 +7 1020.4 1011.2
С 5 н/о н/о +9.8 +1.2 55 +7 +7 1021.5 1012.3
С 7 н/о н/о +9.2 +1.4 58 +6 +6 1021.4 1012.2
С 8 20 км ясно +8.7 +1.1 59 +5 +5 1020.8 1011.6
С 7 20 км ясно +8.3 +0.9 60 +4 +4 1021.2 1012.0
С 8 20 км ясно +8.1 +0.6 59 +4 +4 1021.9 1012.6
С 6 30 км 3/0
[Ac lent Ci fib]
+8.0 +0.2 58 +4 +4 1021.9 1012.6 +7.9
С 7 30 км 1/0
[Ac lent Ci fib]
+7.8 +0.2 59 +4 +4 1022.4 1013.1
С 6 30 км 1/0
[Ci fib]
+9.0 +1.2 58 +6 +6 1022.5 1013.3
С 6 30 км 1/0
[Ci fib]
+10.4 +2.0 56 +7 +8 1022.5 1013.3
С 4 30 км 3/0
[Ci fib]
+12.6 +2.0 48 +11 +13 1022.2 1013.1
С 3 30 км 1/0
[Ci fib]
+13.8 +2.3 46 +13 +16 1021.4 1012.3
С 2 30 км 1/0
[Ci fib]
+14.6 +2.7 45 +14 +18 1020.6 1011.6
С 2 30 км 1/0
[Ci fib]
+15.0 +3.3 45 +15 +17 1019.9 1010.9
С 2 н/о н/о +15.1 +1.7 40 +15 +15 1019.4 1010.4
С 2 н/о н/о +13.1 +2.4 48 +13 +13 1019.2 1010.1
С 4 н/о н/о +11.1 +2.2 54 +9 +9 1019.1 1010.0
С 1 н/о н/о +10.6 +2.0 55 +11 +11 1019.5 1010.3
СВ 3 25 км 6/6 1500 м
[Sc]
+10.4 +2.8 59 +9 +9 1018.9 1009.7 +15.3
С 4 20 км 8/8 1500 м
[Sc]
+10.0 +2.5 60 +8 +8 1018.9 1009.7
Ю 1 20 км 8/8 1500 м
[Sc]
+10.1 +3.6 64 +10 +10 1019.0 1009.8
штиль 0 н/о н/о +9.9 +1.8 57 +10 +10 1018.6 1009.4
штиль 0 н/о н/о +9.6 +3.8 67 +9 +9 1017.5 1008.3
В 2 20 км 10/10 1000 м
[Sc]
+11.7 +6.0 68 +11 +11 1015.6 1006.5
В 3 20 км 10/10 1000 м
[Sc]
+12.6 +5.3 61 +11 +11 1015.0 1006.0
В 3 20 км 10/10 1000 м
[Sc]
+12.5 +5.2 61 +11 +11 1014.5 1005.5
В 4 30 км 10/10 1000 м
[Cu Sc]
+13.0 +6.0 62 +11 +11 1014.2 1005.2 +9.5
В 4 30 км 10/10 1000 м
[Cu Sc]
+13.2 +6.5 64 +12 +12 1014.2 1005.2
СВ 3 30 км 10/10 1000 м
[Cu Sc]
+13.8 +7.2 64 +13 +13 1013.7 1004.7
В 4 45 км 8/8 600 м
[Cu Sc]
+15.3 +8.2 63 +14 +15 1013.1 1004.2
В 6 40 км 8/6 600 м
[Cu Sc Ci fib]
+15.4 +9.5 68 +14 +14 1012.5 1003.6
В 5 30 км 8/4 600 м
[Cu Sc Ac cast Ci sp]
+15.7 +10.6 72 +15 +15 1011.7 1002.8
В 5 30 км в посл. час дождь 8/8 600 м
[Cu Sc Ci sp]
+15.1 +11.3 78 +14 +14 1010.9 1002.0 0.0 0.0
В 7 30 км 8/8 600 м
[Cu Sc Ci sp]
+14.4 +10.3 76 +12 +12 1010.2 1001.3
н/о н/о +14.2 +11.1 82 1009.7 1000.7
н/о н/о +14.0 +10.9 82 1009.5 1000.5
СВ 4 н/о н/о +13.4 +11.7 89 +12 +12 1009.1 1000.1
В 5 н/о н/о +13.7 +11.8 88 +12 +12 1008.2 999.2
В 5 20 км в посл. час дождь 6/6 600 м
[Cu Sc]
+13.8 +11.9 88 +12 +12 1007.7 998.8 +16.6 2
В 6 12 км гроза, ливневой дождь 10/8 600 м
[Cb cap As op]
+13.8 +11.7 87 +12 +12 1007.0 998.1
В 6 7000 м гроза, ливневой дождь 10/10 600 м
[Cb cap]
+14.2 +12.1 87 +12 +12 1006.6 997.7
В 6 н/о н/о +14.8 +11.6 81 +13 +13 1006.4 997.5
ЮВ 4 н/о н/о +15.1 +13.2 88 +14 +14 1002.9 994.0
ЮВ 4 8000 м дождь {гроза, ливн. дождь} 10/6 600 м
[Frnb As op]
+13.0 +12.3 96 +11 +11 998.9 990.0
ЮВ 2 5000 м сильн. дождь {гроза, ливн. дождь} 10/4 600 м
[Frnb As op]
+13.1 +12.4 96 +12 +12 998.8 989.9
СЗ 5 5000 м слаб. ливневой дождь {гроза} 10/5 600 м
[Cb cap As op]
+12.5 +12.0 97 +10 +10 997.8 988.9
С 5 8000 м сильн. дождь {гроза, ливн. дождь} 10/5 600 м
[Frnb As op]
+11.9 +11.3 96 +9 +9 997.7 988.8 +11.8 33 34.1
С 2 4000 м дождь {гроза, ливн. дождь} 10/3 100 м
[Frnb As op]
+11.8 +11.4 97 +11 +11 998.6 989.7
С 3 12 км слаб. дождь {ливн. дождь} 10/3 600 м
[Frnb As op]
+11.6 +11.2 97 +10 +10 998.5 989.6
штиль 0 12 км слаб. дождь {ливн. дождь} 10/5 600 м
[Frnb As op]
+11.6 +11.2 97 +11 +11 998.7 989.8
ЮВ 1 20 км в посл. час дождь {ливн. дождь} 9/9 600 м
[Cu med, cong]
+12.2 +11.8 97 +12 +12 998.8 989.9
ЮЗ 2 н/о н/о +13.5 +10.9 84 +13 +13 997.8 988.9
З 3 40 км 6/3 600 м
[Cu med, cong Ac cuf Ci sp]
+13.6 +8.9 73 +13 +14 998.4 989.5 7 40.6
ЮЗ 2 40 км 4/3 1000 м
[Cu med, cong Ac cuf Ci sp]
+14.8 +9.2 69 +15 +16 997.7 988.9
Ю 2 н/о н/о +14.0 +8.7 70 +14 +14 997.7 988.8
В 1 н/о н/о +12.4 +9.1 80 +12 +12 997.3 988.4
В 2 н/о н/о +12.3 +9.0 80 +11 +11 996.9 988.0
В 3 н/о н/о +11.7 +9.3 85 +10 +10 996.1 987.2
В 3 10 км гроза, ливневой дождь 10/8 600 м
[Cb cap As op]
+12.0 +9.8 86 +10 +10 995.8 986.9 +15.4 7
В 3 8000 м гроза, ливневой дождь 10/5 600 м
[Cb cap As op]
+10.5 +9.6 94 +8 +8 995.3 986.4
С 4 2000 м гроза, ливневой дождь 10/5 300 м
[Cb cap As op]
+9.1 +8.5 96 +6 +6 995.6 986.6
С 3 н/о н/о +9.6 +7.3 86 +7 +7 995.3 986.3
ЮВ 1 н/о н/о +9.7 +8.2 90 +9 +9 996.8 987.8
В 3 20 км {гроза, ливн. дождь} 1/1 1000 м
[Sc diur, vesp]
+10.4 +9.3 93 +8 +8 996.9 988.0
В 3 20 км 5/0
[Cc]
+10.9 +9.2 89 +9 +9 997.3 988.4
В 3 20 км 3/0
[Ac cast Ci sp]
+10.9 +9.0 88 +9 +9 997.2 988.3
В 5 30 км 1/1 1000 м
[Cu Sc Ci fib]
+11.1 +9.6 90 +8 +8 997.2 988.3 +9.0 31 31.2
В 5 40 км 3/1 600 м
[Cu med, cong Ci sp]
+11.8 +9.4 85 +9 +9 997.2 988.3
В 5 40 км 8/5 600 м
[Cu med, cong Ci]
+13.3 +10.6 84 +11 +12 997.3 988.5
В 4 40 км 5/4 600 м
[Cu med, cong Ci sp]
+15.8 +11.0 73 +15 +16 997.4 988.6
Ю 5 40 км 4/4 1000 м
[Cb calv]
+16.4 +9.1 62 +16 +17 997.4 988.6
Ю 7 40 км 3/1 1000 м
[Cb calv Ac cast Ci sp]
+16.1 +7.9 58 +15 +16 997.4 988.6
Ю 6 40 км 9/9 600 м
[Cb calv]
+15.3 +8.8 65 +14 +14 997.1 988.3 31.7
ЮВ 5 40 км 8/8 600 м
[Cu Sc]
+15.5 +9.5 67 +14 +15 996.9 988.1
Ю 4 н/о н/о +15.2 +8.7 65 +14 +14 996.7 987.9
Ю 5 н/о н/о +15.1 +8.4 64 +14 +14 996.9 988.1
Ю 4 н/о н/о +14.5 +9.4 71 +13 +13 996.8 988.0
Ю 5 н/о н/о +14.8 +9.4 70 +13 +13 996.8 988.0
Ю 6 20 км в посл. час гроза {дождь} 10/10 600 м
[Cu Sc]
+15.0 +10.1 72 +13 +13 996.7 987.9 +16.9 0.2
С 2 15 км в посл. час дождь {гроза} 8/8 600 м
[Cu Sc]
+12.9 +10.2 84 +12 +12 997.0 988.1
С 4 15 км 10/10 1000 м
[Cu Sc]
+12.5 +8.8 78 +11 +11 997.0 988.1
СВ 2 н/о н/о +13.0 +8.9 76 +12 +12 997.4 988.5
ЮЗ 1 н/о н/о +11.9 +9.0 82 +12 +12 997.0 988.1
ЮВ 3 20 км 10/4 600 м
[Frnb As op]
+12.8 +9.9 83 +11 +11 996.3 987.4
В 4 20 км в посл. час дождь 8/8 600 м
[Frnb]
+12.9 +9.1 78 +11 +11 996.5 987.6
ЮВ 5 20 км 6/6 600 м
[Cu med, cong]
+14.4 +9.4 72 +13 +13 996.2 987.4
Ю 6 30 км 10/8 600 м
[Cu Sc As op]
+14.4 +9.4 72 +13 +13 996.0 987.2 +11.2 0.0 0.2
Ю 7 30 км 8/8 600 м
[Cu Sc]
+15.0 +8.7 66 +13 +13 996.0 987.2
Ю 7 30 км 9/9 600 м
[Cu Sc]
+15.4 +9.7 69 +14 +14 996.2 987.4
Ю 7 30 км 10/10 600 м
[Cu Sc]
+15.2 +9.5 69 +13 +13 996.2 987.4
Ю 9
{18}
30 км 9/9 600 м
[Cu Sc]
+15.3 +9.2 67 +13 +13 995.2 986.4
Ю 8
{18}
30 км 9/9 600 м
[Cu Sc]
+15.4 +10.1 71 +14 +14 994.7 985.9
Ю 9
{21}
40 км 10/6 600 м
[Cu Sc As op]
+15.0 +10.5 74 +13 +13 993.5 984.7 0.3
С 3
{19}
8000 м ливневой дождь, в посл. час гроза 10/5 600 м
[Cb cap As op]
+11.2 +9.9 92 +9 +9 994.3 985.4
СЗ 3 н/о н/о +10.0 +8.8 92 +8 +8 994.0 985.1
С 3 н/о н/о +9.4 +8.2 92 +7 +7 994.2 985.2
СВ 2 н/о н/о +9.1 +7.3 88 +7 +7 993.6 984.6
СВ 3 н/о н/о +9.4 +6.9 84 +7 +7 993.9 984.9
В 3 20 км гроза без осадков {ливн. дождь} 10/6 600 м
[Cb calv As op]
+9.2 +7.7 90 +7 +7 994.6 985.6 +15.4 14
В 2 10 км гроза, ливневой дождь 10/6 600 м
[Cb cap As op]
+9.4 +7.7 89 +8 +8 995.3 986.3
ЮЗ 2 10 км ливневой дождь, в посл. час гроза 10/5 600 м
[Cu med, cong As op]
+8.8 +7.8 93 +7 +7 996.0 987.0
С 3 н/о н/о +8.2 +6.4 88 +5 +5 995.8 986.8
Местоположение метеостанции Шибеник (Хорватия): широта 43.73 долгота 15.92 высота над уровнем моря 75 м.
В архиве по умолчанию представлена погода в Шибенике за последнюю неделю. Архивные данные за месяц целиком и за предыдущие месяцы, начиная с января 2011 года, Вы можете получить, выбрав интересующий диапазон дат из раскрывающегося списка и нажав кнопку "Найти!".
*Определитесь, кто Вы:
Внимание! Время в таблицах - всемирное. Для получения местного времени необходимо прибавить поправку, которая равна 1 ч.
Смотрите также архив погоды в соседних городах и на ближайших метеорологических станциях:
Партнеры нашего сайта:      
Пояснения к столбцам:
  • Ветер - указаны скорость ветра в м/с - средняя за 10 мин, порывы в срок и между сроками (в фигурных скобках) и направление, откуда дует ветер: С - северный,
  • СВ - северо-восточный, В - восточный, ЮВ - юго-восточный, Ю - южный, ЮЗ - юго-западный, З - западный, СЗ - северо-западный.
  • Видимость - горизонтальная дальность видимости в метрах или километрах. При видимости от 1 до 10 км при отсутствии осадков обычно наблюдается дымка, при ухудшении видимости до 1 км и менее - туман. В сухую погоду видимость может ухудшаться дымом, пылью или мглою.
  • Явления - указаны атмосферные явления, наблюдавшиеся в срок или в последний час перед сроком; фигурными скобками обозначены явления, наблюдавшиеся между сроками (за 1-3 часа до срока); квадратными скобками обозначены град или гололедные отложения с указанием их диаметра в мм.
  • Облачность - указаны через наклонную черту общая и нижняя облачность в баллах и высота нижней границы облаков в метрах; квадратными скобками обозначены формы облаков: Ci - перистые, Cs - перисто-слоистые, Cc - перисто-кучевые, Ac - высококучевые, As - высокослоистые, Sc - слоисто-кучевые, Ns - слоисто-дождевые, Cu - кучевые, Cb - кучево-дождевые. Подробнее классификацию облаков см. в Атласе облаков (PDF).
  • T - Температура воздуха - температура, измеренная на высоте 2 м над землей.
  • Td - Температура точки росы - температура, при понижении до которой содержащийся в воздухе водяной пар достигнет насыщения.
  • f - Относительная влажность воздуха - влажноcть воздуха, измеренная на высоте 2 м над землей.
  • Te - Эффективная температура - температура, которую ощущает одетый по сезону человек в тени. Характеристика душности погоды. При расчете учитывается влияние влажности воздуха и скорости ветра на теплоощущения человека.
  • Tes - Эффективная температура на солнце - температура, которую ощущает человек, с поправкой на солнечный нагрев. Характеристика знойности погоды. Зависит от высоты солнца над горизонтом, облачности и скорости ветра. Ночью, в пасмурную погоду, а также при ветре 12 м/с и более поправка равна нулю.
  • P - Атмосферное давление - приведенное к уровню моря атмосферное давление.
  • Po - Атмосферное давление - измеренное на уровне метеостанции атмосферное давление.
  • Tmin - Минимальная температура - минимум температуры воздуха на высоте 2 м над землей.
  • Tmax - Максимальная температура - максимум температуры воздуха на высоте 2 м над землей.
  • R - Количество осадков - Количество выпавших осадков за период времени, мм. При наведении курсора мыши на число - период времени, за который выпало указанное количество осадков.
  • R24 - Количество осадков - Количество выпавших осадков за 24 часа, мм.
  • S - Снежный покров - Высота снежного покрова, см. При наведении курсора мыши на число - состояние снежного покрова и степень покрытия местности в баллах.